Regional Weather Roundup
Issued by NWS

Home | Current Version | Previous Version | Graphics & Text | Print | Product List | Glossary On
Versions: 1 2 3 4 5 6 7 8 9 10 11 12 13 14 15 16 17 18 19 20 21 22 23 24 25 26 27 28 29 30 31 32 33 34 35 36 37 38 39 40 41 42 43 44 45 46 47 48 49 50
000
ASUS43 KLSX 020559
RWRMO

WEATHER SUMMARY FOR MISSOURI
NATIONAL WEATHER SERVICE SPRINGFIELD MO
100 AM CDT THU JUL 02 2015

NOTE: "FAIR" INDICATES FEW OR NO CLOUDS BELOW 12,000 FEET WITH NO
       SIGNIFICANT WEATHER AND/OR OBSTRUCTIONS TO VISIBILITY.
       CURRENT SKY AND/OR WEATHER CONDITIONS ARE NOT AVAILABLE FOR
       CHILLICOTHE AND FARMINGTON.

MOZ001>031-035>038-043-044-053-054-020700-
...NORTHERN AND WESTERN MISSOURI...

CITY           SKY/WX    TMP DP  RH WIND       PRES   REMARKS
KANSAS CTY INT PTCLDY    74  70  87 E15       29.87R
6HR MIN TEMP:  74; 6HR MAX TEMP:  83;

KANSAS C DTWN  CLOUDY    77  72  84 E16       29.84R
6HR MIN TEMP:  77; 6HR MAX TEMP:  82; 6HR PCP:  0.03;

LEE`S SUMMIT   CLOUDY    74  71  91 E8        29.87R
6HR MIN TEMP:  71; 6HR MAX TEMP:  76;

ST JOSEPH      CLOUDY    74  69  85 E12       29.88R
6HR MIN TEMP:  74; 6HR MAX TEMP:  84;

CHILLICOTHE      N/A     73  68  84 VRB5      29.90R
6HR MIN TEMP:  73; 6HR MAX TEMP:  83;

KIRKSVILLE     CLOUDY    68  66  93 NE8       29.93R FOG
6HR MIN TEMP:  68; 6HR MAX TEMP:  77; 6HR PCP:  0.10;


$$
MOZ066>068-077>081-088>096-101>105-020700-
...SOUTHWEST MISSOURI...

CITY           SKY/WX    TMP DP  RH WIND       PRES   REMARKS
SPRINGFIELD    TSTM      78  71  79 SW25G35   29.79F
6HR MIN TEMP:  78; 6HR MAX TEMP:  84; 6HR PCP:  0.07;

JOPLIN         CLOUDY    81  71  71 SW15      29.82S
6HR MIN TEMP:  81; 6HR MAX TEMP:  84;


$$
MOZ032>034-039>042-045>050-055>058-069>072-020700-
...CENTRAL MISSOURI...

CITY           SKY/WX    TMP DP  RH WIND       PRES   REMARKS
COLUMBIA       CLOUDY    71  69  93 CALM      29.87R
6HR MIN TEMP:  70; 6HR MAX TEMP:  79; 6HR PCP:  1.31;

JEFFERSON CITY CLOUDY    72  70  93 CALM      29.85R
6HR MIN TEMP:  72; 6HR MAX TEMP:  80; 6HR PCP:  1.46;

ROLLA          CLOUDY    69  68  96 SW7       29.89R
6HR MIN TEMP:  69; 6HR MAX TEMP:  78; 6HR PCP:  0.25;

SEDALIA        CLOUDY    72  69  90 CALM      29.86F
6HR MIN TEMP:  70; 6HR MAX TEMP:  81; 6HR PCP:  2.11;

OSAGE BEACH    CLOUDY    70  66  88 S7        29.86F

$$
MOZ051-052-059>065-020700-
...EAST CENTRAL MISSOURI...

CITY           SKY/WX    TMP DP  RH WIND       PRES   REMARKS
ST LOUIS INTL  LGT RAIN  74  70  87 E5        29.87F
6HR MIN TEMP:  72; 6HR MAX TEMP:  82; 6HR PCP:  0.79;

SPIRIT OF STL  CLOUDY    71  70  96 CALM      29.86R
6HR MIN TEMP:  71; 6HR MAX TEMP:  80; 6HR PCP:  0.15;

ST CHARLES     CLOUDY    73  72  96 SE5       29.86S
6HR MIN TEMP:  72; 6HR MAX TEMP:  80; 6HR PCP:  0.04;


$$
MOZ072>076-082>087-097>100-106>115-020700-
...SOUTH CENTRAL AND SOUTHEAST MISSOURI...

CITY           SKY/WX    TMP DP  RH WIND       PRES   REMARKS
CAPE GIRARDEAU RAIN      75  73  93 CALM      29.84F FOG
6HR MIN TEMP:  73; 6HR MAX TEMP:  79; 6HR PCP:  0.40;

FARMINGTON     CLOUDY    66  64  94 E8        29.94S THUNDER
6HR MIN TEMP:  66; 6HR MAX TEMP:  79; 6HR PCP:  1.09;

WEST PLAINS    LGT RAIN  76  72  87 CALM      29.90R
6HR MIN TEMP:  76; 6HR MAX TEMP:  79; 6HR PCP:  0.01;


$$



USA.gov is the U.S. government's official web portal to all federal, state and local government web resources and services.